Theta_e
356 356 357 357 356 356 355 354 354 353 353 353 354 354 354 359 362 361 362 366 362 356 353 352 353 354 356 357 357 357 357 356 357 358 357 356 355 355 355 355 354 351 348 347 347 347 347 345 340 333 333 339 343 342 342 343 343 343 342 343 345 349 352 352 352 352 351 350 349 349 348 348 349 348
356 356 356 356 355 355 355 355 354 354 354 354 354 355 354 354 357 359 360 363 360 355 353 353 353 355 356 357 356 355 355 355 356 357 357 357 356 356 356 357 356 354 351 349 348 347 347 344 339 333 331 336 340 342 342 342 344 347 349 349 350 352 352 352 352 352 351 350 350 349 348 348 348 348
355 355 355 355 355 355 356 356 355 354 354 354 354 355 355 354 354 356 356 358 358 354 352 352 353 355 356 356 356 355 354 354 354 353 354 356 357 357 359 359 358 357 355 351 349 348 348 346 341 334 330 332 336 339 342 345 348 350 351 351 351 352 352 352 352 351 351 351 350 349 349 348 348 348
356 356 355 355 356 356 357 357 355 354 353 354 354 354 354 354 354 353 352 353 355 353 352 352 351 353 355 355 355 354 354 352 353 353 352 354 358 359 359 360 359 358 356 353 350 349 348 348 345 338 332 331 332 336 342 348 350 350 351 351 352 352 352 352 352 351 351 350 350 349 349 348 348 348
356 356 356 355 355 356 357 356 356 355 354 353 354 352 353 354 354 353 351 352 354 353 353 355 355 353 353 354 353 353 354 353 352 354 354 355 359 361 360 359 358 357 357 355 353 351 350 349 348 345 339 335 332 334 339 344 348 350 350 351 351 351 352 352 351 351 350 350 350 349 348 348 348 348
355 355 357 357 357 357 357 356 356 355 355 354 353 352 353 355 356 354 352 353 355 355 354 356 357 356 353 352 352 352 353 353 351 353 355 355 358 361 361 358 356 355 356 357 356 354 352 351 349 349 346 342 338 335 335 338 343 347 349 349 350 350 350 350 350 349 349 348 348 348 348 348 348 348
354 355 357 357 357 358 357 356 355 356 356 355 354 353 353 354 355 353 352 352 354 357 356 355 356 356 353 351 352 351 351 352 352 354 356 356 357 359 359 358 357 356 356 356 356 355 354 353 351 350 350 348 346 342 338 336 339 343 346 348 349 349 349 349 348 347 346 346 346 346 346 346 347 347
355 354 356 357 357 358 357 355 355 356 356 355 354 353 354 356 355 352 351 352 353 356 357 356 355 354 353 352 352 352 351 352 355 357 357 357 356 357 358 358 358 357 356 356 355 355 355 355 354 353 352 351 350 348 345 340 338 339 341 344 346 347 347 346 345 343 343 343 342 342 342 343 344 344
355 354 354 355 356 357 357 357 355 355 356 356 354 355 355 356 356 354 352 352 353 355 356 357 356 355 355 355 353 352 353 353 356 357 357 358 358 358 358 358 357 355 355 356 356 356 356 356 355 355 354 353 351 351 349 346 342 338 338 341 343 344 343 341 340 339 339 339 339 339 340 341 341 341
354 353 353 353 355 356 357 359 357 355 357 357 355 355 356 356 355 355 354 353 354 355 356 356 356 355 356 357 356 354 353 353 356 356 356 357 358 358 359 358 357 355 355 356 356 357 356 356 355 355 354 354 353 352 351 350 347 343 339 338 340 342 341 339 338 339 340 340 340 340 339 340 340 340
353 353 353 353 356 357 357 358 357 357 358 357 355 354 355 356 357 357 356 355 356 357 356 355 354 354 355 357 357 356 353 352 354 356 356 357 357 357 357 357 357 356 355 355 356 356 356 356 355 355 354 354 353 352 352 351 350 348 344 339 338 340 340 340 340 341 341 342 342 341 340 340 340 340
353 353 353 354 356 356 355 355 357 358 358 356 355 355 355 356 357 357 356 356 356 356 356 354 353 353 356 357 357 356 355 353 354 356 356 357 357 357 356 355 355 356 355 355 355 356 356 355 355 355 354 354 353 353 353 352 351 350 348 343 339 338 339 340 340 342 342 342 343 342 341 340 340 340
354 353 353 354 355 355 355 356 358 359 358 357 356 356 356 356 357 356 354 355 355 355 356 356 354 354 355 356 356 356 356 356 356 356 355 356 356 356 355 354 354 354 355 355 356 355 355 355 355 355 354 354 354 353 353 352 351 351 350 348 343 339 339 340 341 342 343 343 343 343 341 340 340 340
354 353 353 354 354 355 356 358 358 358 359 358 357 357 357 357 357 356 354 355 355 354 355 356 355 355 355 355 356 356 356 355 354 354 355 354 354 354 355 355 354 353 353 354 355 355 355 354 354 354 354 354 354 354 353 352 351 351 350 349 346 342 340 340 341 342 343 343 344 343 342 341 340 339
353 353 354 354 353 353 355 356 357 357 357 357 356 356 357 356 357 356 355 356 355 354 355 355 354 355 354 354 355 356 356 354 353 353 353 353 353 354 355 355 355 354 353 353 354 355 355 354 354 354 354 354 354 354 354 353 352 352 351 350 348 345 344 343 342 342 343 343 344 344 343 342 341 340
354 354 354 354 353 353 354 355 356 356 356 356 355 355 356 356 356 355 354 355 354 354 355 355 353 353 352 351 353 355 355 355 354 353 353 353 354 355 355 354 355 354 354 354 355 355 355 354 354 354 353 352 352 353 353 353 353 352 351 350 349 347 347 346 345 344 343 343 343 343 343 343 343 342
355 355 354 353 352 353 354 355 355 355 356 356 355 355 356 357 357 356 354 354 354 354 355 354 354 354 351 350 353 354 354 354 353 352 352 353 354 355 355 354 354 355 354 355 355 355 354 353 353 354 353 351 351 352 352 352 352 351 350 349 348 347 347 346 345 345 344 343 343 342 341 341 342 342
354 355 354 353 352 353 354 355 355 354 355 355 355 355 356 356 356 356 355 353 353 354 354 354 354 354 352 352 354 355 354 354 354 353 352 353 353 354 354 353 354 354 354 354 354 354 353 353 353 354 353 351 351 351 351 351 350 349 348 347 346 346 345 345 344 343 343 343 343 343 342 341 341 341
355 355 353 353 353 354 354 355 355 355 355 355 355 355 354 354 355 354 353 353 353 353 354 354 355 354 354 353 354 354 353 354 354 353 353 353 352 353 354 353 353 353 353 353 354 353 353 353 353 353 352 351 350 349 348 349 348 348 347 346 345 345 344 344 343 342 342 343 342 342 341 341 340 340
355 354 353 353 354 355 355 355 355 355 356 355 355 354 353 354 355 354 353 353 354 354 355 355 355 354 352 350 349 348 348 348 348 350 352 352 352 353 354 353 353 353 351 352 353 353 353 352 352 352 350 349 348 347 347 346 345 345 345 345 344 344 344 344 343 342 342 341 341 340 340 339 338 338
354 353 353 354 354 355 355 355 356 355 354 354 354 354 353 353 354 354 353 353 353 353 354 355 354 352 348 345 344 343 342 342 342 343 346 348 351 353 354 353 352 352 351 351 352 353 352 351 350 350 350 349 347 346 346 344 343 342 341 341 342 343 343 342 342 341 340 340 339 338 337 337 336 335
353 352 353 355 355 355 355 355 354 352 352 352 353 353 352 352 352 353 354 353 352 353 354 354 353 350 346 344 343 342 341 340 340 340 340 343 348 351 352 352 352 351 350 350 351 352 352 350 349 349 349 347 346 346 345 344 342 340 339 338 339 339 339 338 338 338 338 337 336 335 334 333 333 332
352 351 353 355 355 354 354 353 352 350 350 351 352 351 350 350 351 352 353 353 352 352 351 351 350 347 346 345 345 344 343 342 342 341 339 342 347 350 350 351 351 351 351 351 352 352 351 349 349 349 348 348 346 345 344 343 341 340 338 337 336 335 334 334 334 334 334 333 332 332 331 331 330 331
351 350 351 352 352 352 351 350 349 349 348 349 350 349 348 349 351 351 352 353 352 351 349 348 347 347 345 344 344 344 345 345 346 345 343 344 348 349 349 349 349 350 352 351 351 352 350 348 348 348 347 348 347 344 342 341 340 339 337 335 334 334 333 332 332 331 331 331 331 331 331 330 329 330
350 349 349 350 350 349 347 346 345 345 345 345 345 344 345 348 350 350 350 350 350 349 349 347 346 345 343 341 341 342 342 345 348 348 347 347 347 347 348 349 348 349 350 349 348 349 349 348 347 346 346 346 346 344 342 341 340 339 337 335 334 333 333 332 331 330 329 329 330 330 330 329 329 329
348 348 349 350 349 348 346 344 342 342 341 341 341 342 345 348 348 348 347 347 346 347 346 345 344 343 341 341 342 342 343 346 348 348 347 347 346 346 346 347 347 348 348 346 345 346 347 347 345 345 345 345 345 345 344 342 340 339 337 336 334 333 333 331 330 330 328 328 328 328 328 329 329 329
347 346 347 348 347 346 345 342 339 338 337 337 339 342 344 345 345 344 344 343 344 345 345 343 343 343 342 342 344 346 346 347 346 346 345 345 344 344 344 343 344 345 345 345 344 344 344 345 344 344 344 345 345 344 344 343 341 338 337 336 334 333 333 331 330 330 329 328 327 326 327 327 328 328
346 346 346 345 344 342 340 338 338 337 337 337 339 341 341 340 340 339 340 342 343 343 344 343 343 343 345 346 347 347 347 346 345 343 342 342 342 342 343 343 343 342 342 343 342 341 341 341 342 342 343 343 344 344 344 344 342 339 337 336 334 333 332 331 330 329 328 327 327 326 326 326 326 327
344 344 343 341 340 338 338 338 338 338 338 338 338 338 338 337 336 337 339 343 344 343 343 344 344 345 346 345 346 346 345 344 343 341 340 340 340 340 341 342 341 340 340 340 340 340 340 339 340 340 341 341 340 341 341 341 341 340 339 337 335 334 332 331 330 329 328 328 327 326 326 325 325 326
341 341 340 339 337 337 338 338 337 337 338 337 336 336 335 334 336 339 341 342 343 343 344 343 344 345 346 345 344 343 342 342 342 341 340 340 340 339 340 341 341 340 340 340 339 339 339 339 339 339 340 340 339 338 338 339 340 340 339 338 336 334 332 331 330 329 328 328 327 326 326 326 326 326
340 339 339 338 337 336 337 336 336 338 339 337 335 334 333 334 338 342 341 339 341 342 343 343 344 345 344 343 342 341 341 341 341 342 341 341 341 340 340 340 340 341 340 339 338 337 337 337 337 337 338 338 338 338 338 338 338 339 339 338 336 334 333 331 330 329 328 328 327 326 326 326 326 326
339 337 337 336 335 335 335 336 336 338 341 339 336 336 336 337 340 341 338 338 339 341 342 343 344 344 342 341 341 342 341 342 342 342 341 341 340 340 340 340 339 340 340 339 338 337 336 335 335 335 335 336 337 337 336 336 337 337 338 337 335 334 333 331 330 329 328 328 327 326 325 326 326 326
338 337 336 336 335 336 337 337 337 339 341 341 339 340 340 340 339 338 336 336 337 338 341 342 343 343 342 341 341 341 341 341 341 341 341 340 340 339 339 339 339 338 339 339 338 337 336 335 335 334 332 332 334 335 335 335 335 336 336 336 335 334 332 332 331 329 329 328 327 325 325 326 326 326
338 338 338 338 338 339 339 339 339 340 341 341 341 341 342 341 339 337 335 335 336 337 340 341 341 341 341 340 340 340 340 340 341 340 339 339 339 338 338 338 338 338 338 338 337 337 336 335 334 333 332 332 332 332 333 333 334 335 336 335 335 334 332 331 331 330 329 328 327 326 326 326 326 325
340 340 340 340 340 340 340 340 340 340 342 342 342 342 341 339 339 337 336 336 338 338 338 338 339 340 340 340 340 340 340 340 339 338 338 338 337 337 338 337 337 338 338 336 336 336 336 335 334 334 333 333 333 333 333 333 333 334 335 335 334 333 333 331 330 330 329 328 327 326 326 326 326 326
339 341 340 340 340 340 340 341 340 340 341 341 341 341 339 337 336 337 336 336 337 337 336 336 337 338 338 338 339 339 339 339 338 337 338 337 337 337 337 336 335 336 336 335 334 334 334 334 333 333 333 333 334 335 336 334 333 333 335 335 334 333 332 332 331 329 329 328 327 326 326 326 326 327
337 340 340 340 340 340 340 340 340 340 340 340 339 339 339 337 336 336 336 336 336 336 335 336 336 336 336 337 337 338 338 338 338 337 337 336 336 337 337 336 335 335 334 333 332 333 334 333 332 332 332 333 333 335 337 336 333 332 333 335 335 334 332 331 331 329 328 328 327 326 326 325 325 326
336 339 341 341 341 340 340 340 340 340 340 339 338 339 339 339 338 337 336 336 336 335 335 336 337 336 336 336 336 336 336 336 335 334 334 335 336 337 335 334 333 333 332 331 330 332 332 332 331 332 332 333 333 334 335 335 333 332 332 332 332 333 333 331 330 329 329 328 327 326 326 326 325 326
335 337 340 342 342 341 340 340 340 340 339 339 339 339 339 339 339 338 337 336 336 335 334 335 336 336 336 336 335 336 335 334 333 334 334 334 335 335 333 332 332 332 331 330 330 331 331 329 330 330 331 332 332 332 333 333 332 332 332 331 329 331 332 331 330 330 329 328 327 327 326 326 326 326
334 335 337 341 342 342 341 341 340 340 340 339 340 340 339 339 340 339 338 338 338 336 335 336 336 335 336 336 336 335 335 335 335 335 334 333 334 333 333 332 332 331 331 330 330 331 330 329 329 329 328 328 328 328 330 330 329 328 330 330 329 329 330 330 330 329 329 328 327 327 327 327 327 326
337 336 337 339 342 343 342 341 340 340 340 340 340 340 339 339 340 341 340 339 339 336 335 336 336 336 336 337 336 335 334 335 335 334 333 333 333 333 332 331 330 330 329 329 329 331 332 331 330 329 327 328 329 330 329 329 329 328 329 330 330 329 328 328 328 328 328 327 326 327 328 327 327 326
341 340 340 340 341 341 342 342 341 339 339 340 341 340 339 339 340 340 340 339 338 337 337 337 336 336 337 337 336 334 334 334 334 333 333 333 333 332 331 330 329 328 328 328 330 332 334 333 332 330 329 330 331 331 330 329 329 329 329 330 330 329 328 327 327 328 328 326 325 326 327 327 327 327
343 344 343 342 341 341 341 342 341 340 340 340 340 341 340 339 339 339 339 339 339 338 338 338 337 336 337 337 337 335 334 333 334 334 334 334 333 333 332 330 329 329 330 331 331 333 333 332 331 330 330 330 330 329 329 329 329 329 329 330 330 330 329 327 325 325 325 323 323 323 323 323 325 327
343 345 344 343 342 342 342 341 341 340 340 340 341 341 341 341 340 339 339 339 339 338 338 338 337 336 336 337 337 336 335 334 334 334 334 334 334 333 332 332 331 331 332 332 332 333 333 332 331 329 329 330 329 328 329 329 329 329 329 329 330 330 330 328 325 324 322 322 323 323 322 321 321 321
343 344 344 343 342 341 341 340 340 340 339 338 338 339 340 340 340 340 339 339 338 338 337 337 337 336 336 335 336 336 336 335 335 334 334 334 333 333 333 333 332 332 333 333 332 332 333 333 332 331 330 330 330 330 330 329 330 330 330 329 330 330 330 329 327 325 324 324 325 325 324 324 323 320
Wind_Speed
10 10 10 11 11 11 11 11 10 10 10 9 8 9 8 3 1 1 2 1 1 1 2 3 5 7 8 9 8 6 8 7 7 11 11 10 11 11 11 11 9 9 10 11 12 12 13 14 14 14 13 11 10 11 11 12 12 12 12 12 12 13 12 11 12 13 13 13 12 12 12 12 12 12
10 10 10 11 12 12 11 11 11 10 10 9 9 9 8 5 4 3 2 3 2 2 3 2 3 6 7 7 5 3 7 8 8 10 10 10 12 12 11 11 10 9 10 10 11 12 12 12 12 12 12 10 10 10 10 10 10 10 11 12 12 12 12 12 13 14 14 13 12 12 12 12 12 12
10 11 11 12 13 13 13 12 11 11 10 10 10 10 9 7 7 4 1 2 3 2 3 4 4 6 7 6 4 4 7 9 10 11 10 10 13 13 11 11 10 10 10 10 10 11 11 11 11 11 10 10 9 10 9 9 9 10 11 11 12 12 12 12 13 13 13 13 12 12 12 11 11 11
11 11 12 13 13 14 14 13 11 11 10 10 9 8 8 8 7 4 3 4 6 7 7 7 6 7 6 4 6 7 6 8 10 11 9 8 11 13 13 12 11 11 10 9 9 10 10 10 10 10 9 9 10 10 11 10 10 10 11 10 11 11 12 12 13 13 12 12 12 11 11 11 11 10
13 12 13 14 14 15 15 14 12 11 10 10 9 8 7 6 4 3 6 7 7 10 8 5 4 6 7 6 7 8 7 8 9 10 10 8 9 12 13 12 11 11 10 10 9 9 10 10 9 9 9 9 10 11 12 12 11 11 11 11 11 12 12 13 13 12 12 11 11 11 11 11 11 11
16 14 15 15 14 14 15 15 13 12 10 10 10 9 7 5 3 2 4 6 6 7 7 4 2 3 5 6 8 9 8 8 9 11 12 10 10 12 13 13 12 11 11 13 12 11 10 9 10 9 9 9 9 10 11 13 13 12 13 13 13 12 13 13 12 12 12 12 12 12 12 12 11 11
18 16 16 15 14 14 15 15 14 12 10 8 8 8 9 7 3 1 1 4 6 6 6 5 4 3 4 5 7 10 10 9 10 11 12 11 11 13 14 14 14 11 11 12 13 13 11 9 10 10 10 10 10 10 10 12 13 13 14 14 13 13 13 13 13 12 13 12 12 13 12 11 11 11
17 17 17 16 14 14 15 16 15 13 10 8 7 7 7 5 2 1 2 4 7 7 6 5 5 6 6 5 6 8 9 10 10 10 11 11 12 13 15 16 15 14 13 12 12 13 12 10 10 10 11 11 11 11 11 11 12 13 14 14 13 13 13 13 13 12 12 12 12 12 12 11 10 10
15 18 20 19 17 17 16 16 16 14 10 8 7 7 6 4 2 2 4 5 6 8 7 5 5 6 6 5 7 8 8 10 11 11 11 11 12 13 14 15 15 14 14 13 11 12 12 11 11 11 12 13 13 13 12 12 12 13 14 14 13 13 12 12 11 11 10 11 11 11 11 10 10 10
16 19 22 21 19 19 17 15 15 14 10 7 7 7 7 7 5 3 4 5 6 7 8 6 5 6 7 7 8 8 7 8 10 10 10 11 13 13 13 14 15 14 13 12 12 12 12 12 12 12 12 13 14 15 14 14 13 13 14 14 14 13 12 12 11 11 11 10 10 10 11 11 11 11
15 18 20 19 18 18 18 16 15 14 13 11 11 9 7 8 6 4 4 5 5 7 7 7 6 7 8 8 7 7 7 8 9 9 8 9 12 14 15 15 15 14 12 11 12 13 12 12 12 12 11 12 13 14 14 15 15 15 14 14 14 14 14 13 12 12 12 11 11 11 11 12 12 12
14 15 16 15 17 18 19 19 18 15 15 15 14 10 9 9 8 6 6 6 6 7 7 7 8 8 8 8 8 6 6 7 8 8 8 10 11 13 15 16 16 15 14 13 13 13 13 14 14 14 14 14 14 14 14 15 16 16 15 15 15 15 15 15 14 14 13 13 13 13 13 13 13 13
16 15 14 13 15 17 16 16 17 16 16 17 16 12 10 11 10 7 7 6 6 6 6 6 7 8 9 9 8 8 9 9 8 8 10 11 11 13 15 15 15 15 15 15 14 13 13 14 15 16 15 14 13 13 13 14 14 15 15 16 15 15 15 15 15 15 15 15 15 14 14 14 14 15
18 16 15 15 15 15 14 14 15 16 16 19 18 15 12 12 11 9 7 7 6 6 6 6 7 8 9 9 8 9 10 10 9 9 10 10 11 13 13 13 13 13 13 14 15 14 13 14 14 14 13 12 11 11 12 12 12 11 12 13 14 14 15 15 16 17 17 17 16 16 16 16 16 16
19 15 14 15 16 16 15 15 15 15 16 18 19 16 15 15 13 11 10 9 8 7 7 7 7 7 7 8 8 9 8 8 8 8 9 10 11 12 11 9 9 10 11 13 14 14 13 13 13 13 13 13 13 13 13 12 11 10 9 10 11 12 14 15 16 18 18 18 18 18 18 17 17 18
16 14 15 16 17 15 13 13 13 13 15 18 17 16 17 16 15 14 13 12 11 10 9 9 8 7 8 9 9 9 8 7 8 8 8 10 11 11 10 10 9 9 9 10 13 14 13 12 12 13 13 14 13 12 13 12 11 10 10 10 11 12 14 15 16 17 18 19 20 20 19 19 19 19
14 14 15 16 17 15 12 12 12 12 13 15 15 15 15 14 14 14 15 14 14 12 11 11 9 8 8 9 8 7 6 6 6 7 8 9 10 10 11 12 12 11 10 10 12 13 13 12 12 12 12 12 12 10 10 11 11 10 10 11 12 13 14 15 15 16 16 17 18 19 20 20 20 21
16 16 16 17 17 13 11 12 12 12 13 13 13 13 13 13 13 13 14 14 14 14 14 14 12 9 9 9 7 6 5 5 6 7 8 10 11 11 12 12 12 13 13 12 11 10 12 13 12 11 10 11 12 10 9 10 11 11 11 12 12 13 13 14 14 15 15 15 15 16 17 19 20 21
16 17 17 17 15 11 10 12 12 12 12 11 11 11 11 12 12 13 13 12 12 13 13 13 12 11 11 8 6 5 5 5 7 7 8 9 10 11 11 10 12 13 14 14 12 9 9 10 12 11 9 8 10 10 10 11 13 13 13 13 13 13 13 13 14 15 15 15 16 16 16 17 18 19
16 17 17 16 13 11 12 13 12 12 11 9 9 9 10 11 11 11 11 10 11 12 12 11 10 9 7 5 3 3 4 4 5 5 6 8 9 10 9 9 11 12 11 12 13 11 9 8 9 10 10 9 9 10 10 11 12 13 13 14 14 14 13 14 15 16 16 17 17 16 16 16 16 17
16 16 17 14 12 11 12 12 11 11 11 10 9 9 10 11 11 11 10 9 10 12 11 9 7 6 4 4 4 5 6 7 7 8 8 9 9 9 8 8 9 9 8 10 12 12 10 8 7 10 12 11 9 10 11 10 9 10 11 12 12 13 13 14 15 15 15 15 15 15 15 15 15 14
16 16 15 12 10 11 12 11 10 10 10 10 9 9 9 10 10 10 10 9 8 9 9 8 7 7 5 6 6 6 7 8 9 12 13 11 9 9 8 7 7 7 8 10 12 12 9 7 7 10 11 9 8 10 11 10 9 10 10 8 8 9 10 11 12 12 13 13 13 13 13 13 12 11
14 15 14 11 10 10 10 9 8 9 9 9 8 6 6 8 7 5 7 9 7 7 9 9 7 6 5 5 7 8 7 7 8 10 11 10 8 9 9 8 6 5 5 7 11 11 8 7 6 8 8 5 5 9 11 10 9 10 10 6 5 4 5 7 8 9 10 11 11 12 11 10 9 8
12 12 12 11 11 11 10 8 8 8 9 9 8 7 5 7 6 3 5 8 7 7 8 7 6 6 5 6 8 9 9 10 9 8 7 7 8 9 8 8 7 5 1 6 9 8 6 5 6 7 7 4 2 8 11 10 9 9 8 6 4 4 6 8 8 7 8 9 10 10 9 7 6 6
12 11 11 12 13 12 10 8 8 9 10 10 10 10 9 9 8 5 6 7 7 7 7 6 8 9 7 7 9 9 9 9 7 5 4 5 7 7 5 5 6 4 1 3 6 6 4 4 5 6 7 6 4 5 9 10 10 10 7 4 4 4 5 8 9 8 9 9 7 6 5 4 5 7
11 11 11 12 12 11 9 8 8 8 9 10 11 13 13 12 10 9 8 6 6 7 8 8 9 8 6 7 9 8 6 6 6 5 4 4 5 5 4 4 4 3 3 1 3 4 3 2 2 3 4 5 5 5 6 9 11 11 8 4 4 5 5 5 7 8 9 10 8 4 3 4 6 8
9 11 12 11 11 9 8 7 7 8 8 9 10 11 11 11 10 9 8 6 5 7 7 6 5 5 5 6 6 2 5 6 4 4 5 5 4 4 3 3 3 2 2 2 1 2 1 1 3 4 5 4 5 6 6 5 9 12 10 7 6 7 6 4 4 6 8 10 9 5 3 5 7 9
9 12 12 11 9 7 6 6 7 7 7 9 10 9 8 7 7 8 8 7 7 7 6 4 5 6 5 3 1 3 6 4 3 3 4 3 3 2 2 2 2 2 2 2 1 2 2 3 4 6 6 5 5 6 6 3 4 9 11 9 8 9 7 3 3 6 7 8 8 7 4 5 7 9
7 10 10 8 6 5 5 5 5 6 7 7 7 7 6 6 6 7 7 7 7 7 6 6 6 6 3 2 3 4 5 4 2 2 2 2 2 2 3 3 3 2 1 2 2 2 2 2 4 6 6 5 6 7 7 6 4 5 8 9 10 11 9 5 3 5 6 6 7 7 5 5 7 9
5 6 6 6 5 5 6 7 6 5 5 5 5 6 7 8 8 8 7 6 6 7 7 6 6 6 5 5 4 4 4 4 4 3 3 3 3 3 2 4 4 4 3 3 3 3 2 3 5 6 5 5 7 8 9 8 8 7 6 8 8 8 9 7 5 5 7 6 7 7 6 6 8 9
6 5 5 5 5 5 6 7 6 5 5 6 6 7 9 10 9 7 7 7 6 6 6 6 6 8 7 5 5 5 4 4 5 5 5 4 4 3 3 4 5 4 5 4 3 4 6 6 6 6 5 5 6 7 7 7 9 9 7 8 7 5 6 7 6 6 6 6 7 8 8 9 10 9
6 5 5 5 5 6 7 8 8 8 7 7 8 8 9 9 9 8 7 7 7 7 5 4 5 8 7 4 5 5 5 5 6 6 5 5 4 3 3 5 5 5 5 4 5 5 5 5 5 6 6 7 7 7 8 7 9 10 8 7 7 5 4 5 7 7 6 6 7 8 9 10 12 11
6 5 6 6 7 8 9 10 10 10 11 10 10 10 10 10 11 10 7 8 9 7 6 6 6 7 7 5 5 6 6 6 6 6 5 5 5 3 4 6 7 6 5 4 6 7 6 4 4 6 7 8 8 9 9 9 9 10 9 6 7 7 7 7 8 8 8 8 9 9 10 11 12 12
9 8 8 9 10 11 11 11 12 13 13 12 13 13 12 12 13 12 10 11 13 10 7 8 8 7 7 7 7 8 7 7 7 7 6 6 5 4 6 7 8 7 5 3 5 7 5 4 4 5 7 9 9 9 11 11 11 11 9 8 7 9 9 9 9 8 9 10 9 8 11 13 12 12
10 10 11 12 13 14 13 13 14 14 15 15 15 15 14 13 13 12 11 12 15 13 9 8 9 8 9 9 9 10 9 8 7 7 6 6 6 6 7 7 8 8 6 4 5 6 5 3 3 5 7 9 10 11 13 14 15 13 11 10 10 10 9 9 9 8 9 10 8 8 10 13 13 13
11 11 11 12 13 14 14 14 14 15 15 15 15 15 15 13 13 12 12 13 15 14 12 12 11 11 11 11 10 10 9 8 8 8 8 8 8 8 9 9 9 8 7 5 6 6 6 5 3 3 6 7 7 8 10 12 14 14 11 10 11 12 11 9 9 10 10 10 10 9 10 12 14 14
11 10 10 10 12 13 13 13 13 13 14 14 13 13 14 17 17 16 14 14 15 14 14 16 15 13 13 12 11 10 10 10 10 10 10 12 12 12 12 12 13 12 10 7 6 5 5 3 3 4 5 5 4 4 4 4 10 14 14 11 10 11 12 11 10 12 12 12 12 12 13 13 13 13
10 12 11 10 11 12 12 13 14 13 12 12 13 14 14 15 18 19 18 18 18 14 12 14 16 15 15 16 14 12 11 11 11 11 13 15 16 15 13 11 12 12 12 9 8 7 7 6 6 7 5 4 4 4 4 1 6 11 14 14 11 9 12 14 14 15 15 14 14 14 14 14 13 12
12 13 14 13 12 12 12 12 14 15 14 14 15 15 14 12 15 20 20 18 17 14 12 12 13 13 13 14 15 14 12 11 13 14 16 15 14 13 12 11 10 9 9 11 13 13 13 12 12 12 12 11 9 7 5 6 9 10 10 12 12 11 14 16 16 16 17 16 15 15 15 14 14 13
14 15 16 16 13 11 11 11 11 12 14 15 13 13 12 10 13 18 19 16 15 14 13 12 12 12 11 11 11 12 12 13 15 15 14 12 12 12 11 11 10 8 7 8 12 16 18 18 16 16 15 13 10 8 8 10 13 14 12 14 15 13 15 17 17 17 17 16 15 14 15 15 15 14
14 15 15 15 14 11 9 9 9 9 9 10 10 10 9 7 7 11 14 16 17 15 13 12 11 10 10 11 11 11 12 13 13 13 12 12 12 13 12 10 9 7 7 10 13 15 18 20 19 15 13 11 9 8 6 7 11 15 16 18 19 18 18 19 19 18 16 14 14 13 13 14 14 14
16 16 14 13 13 12 8 7 7 8 8 7 7 8 9 9 7 5 5 9 14 15 13 12 11 10 10 11 12 12 13 12 12 13 13 12 12 13 15 13 11 10 12 15 17 15 12 14 16 17 14 13 12 10 7 7 10 14 15 14 18 22 21 20 20 19 16 14 14 14 14 12 10 10
14 16 14 12 11 10 7 4 4 5 6 7 7 7 8 10 10 10 8 7 8 11 11 11 12 12 12 12 12 13 14 13 13 13 13 13 12 13 16 18 17 16 15 14 12 9 8 10 15 18 17 15 13 12 10 10 12 15 15 12 14 19 21 21 21 20 19 17 16 16 16 14 10 9
13 12 12 11 11 9 7 5 4 4 5 6 6 6 8 9 10 11 12 12 11 11 12 12 12 12 12 12 13 14 14 14 14 13 12 12 13 12 12 14 17 18 15 12 9 7 11 13 15 16 16 15 15 14 13 12 13 16 17 15 11 12 17 21 22 21 21 20 19 17 17 16 14 14
13 10 8 8 9 9 7 7 7 6 6 7 7 7 8 10 11 11 12 13 13 13 13 13 13 13 13 13 12 13 13 14 15 14 12 12 13 13 12 12 13 16 16 13 11 9 8 11 14 17 16 15 15 15 15 15 15 16 17 18 15 12 13 17 21 23 24 23 20 18 18 18 16 15
Wind_Direction
257 259 259 261 264 267 267 266 266 264 261 258 255 255 250 224 157 282 296 290 153 201 246 238 239 245 232 218 216 223 232 231 214 209 213 226 238 239 235 236 242 242 241 242 245 250 256 263 268 271 269 260 254 251 246 244 247 254 258 255 253 255 256 256 256 260 264 267 269 270 271 271 270 271
256 259 259 260 264 266 266 265 263 259 256 253 251 251 253 239 203 201 270 285 259 239 243 229 229 244 234 213 207 232 231 217 201 207 214 221 234 241 237 234 235 237 239 241 243 247 253 260 265 266 264 254 246 243 237 235 240 248 253 251 250 251 252 253 255 258 263 267 271 271 271 270 270 270
255 257 258 261 264 267 267 267 267 265 260 254 249 245 241 235 225 214 235 289 292 304 261 236 220 228 227 214 216 228 229 226 219 218 220 219 229 240 242 238 240 243 245 243 242 244 248 255 258 259 260 253 240 229 223 228 238 247 251 249 249 252 254 256 258 260 264 267 270 271 269 268 268 269
253 255 256 257 260 263 265 265 267 267 263 260 259 255 244 234 229 217 181 210 266 280 258 236 223 219 213 217 235 234 236 245 232 223 227 225 225 233 237 240 246 250 250 247 244 244 246 249 253 253 254 252 241 228 223 229 237 244 249 250 251 253 255 256 258 260 264 265 268 269 266 265 265 267
248 251 253 256 259 260 261 262 264 265 267 271 275 274 265 241 208 200 197 201 244 265 257 237 224 221 211 211 231 236 244 252 233 222 232 227 212 221 233 241 248 251 252 251 246 245 246 247 250 250 251 250 246 238 233 233 236 241 246 248 248 250 253 255 258 262 263 262 263 264 264 262 260 261
250 250 249 251 255 258 261 261 261 264 268 275 275 275 275 252 188 170 211 206 228 255 256 249 240 239 230 225 234 240 249 254 236 227 235 231 214 220 232 243 250 253 251 247 243 243 244 247 249 251 251 252 251 248 243 238 237 240 244 246 247 249 252 255 258 260 261 260 260 261 261 260 258 259
250 248 246 250 252 253 257 260 262 263 263 270 276 272 270 258 225 122 223 231 244 254 255 240 217 239 263 253 247 246 249 251 240 230 230 229 228 233 239 243 247 249 245 241 241 241 241 244 249 251 254 255 254 253 251 246 243 244 246 249 252 254 255 256 256 258 260 261 262 263 263 261 260 260
251 248 245 247 249 250 256 259 260 262 258 258 268 266 260 258 265 278 239 239 245 240 241 241 236 250 265 264 256 252 246 243 240 236 231 231 238 243 244 245 248 252 251 247 245 242 240 246 252 257 260 260 260 258 257 254 251 250 251 252 253 255 255 255 255 258 260 262 264 265 266 266 265 266
247 254 253 251 250 249 255 260 259 261 257 246 249 256 255 248 247 243 221 220 226 227 234 247 252 255 254 250 252 253 248 239 237 239 238 240 246 248 248 249 252 257 255 250 242 234 236 247 257 264 266 264 263 262 261 260 257 255 255 254 252 253 253 252 252 253 255 259 263 264 265 264 265 266
237 244 248 254 255 250 250 254 258 265 264 249 244 252 258 255 243 213 209 221 224 230 240 240 232 233 234 240 251 258 260 249 241 242 244 246 249 252 255 254 252 254 254 251 244 236 239 250 258 263 266 265 263 262 261 261 261 260 258 256 253 249 248 248 248 250 254 258 262 264 264 262 261 262
239 237 235 240 246 247 248 252 261 266 261 256 258 255 247 247 242 209 201 218 221 227 238 243 240 235 233 237 248 259 261 250 244 247 253 256 256 255 256 254 254 258 259 255 250 244 246 252 254 258 263 265 264 263 262 261 260 260 259 258 255 251 249 248 250 253 255 258 263 265 265 263 261 261
239 242 241 238 241 247 252 257 261 261 257 258 258 247 231 233 236 220 202 204 211 220 233 244 246 240 231 229 235 242 237 229 233 236 242 253 261 262 260 257 255 257 258 257 253 248 249 252 253 255 260 264 265 264 263 263 261 259 258 257 256 253 251 249 250 253 255 258 261 263 265 265 263 262
232 239 247 246 244 248 254 258 260 258 258 255 247 235 229 232 235 230 219 215 220 227 234 242 243 237 230 225 223 225 221 215 218 227 233 242 253 263 267 264 258 252 250 253 252 249 250 252 253 256 260 263 264 262 260 262 263 262 258 257 257 257 256 254 253 254 256 259 261 263 264 265 265 265
237 240 246 248 248 249 250 253 255 255 254 253 249 246 241 238 237 235 231 229 231 235 239 243 245 239 235 229 220 223 230 230 228 229 232 238 246 254 261 268 268 258 248 246 248 248 251 253 252 254 258 260 260 258 255 258 263 264 259 255 255 256 257 256 256 257 258 261 263 264 265 264 265 265
243 243 245 250 253 252 247 245 245 243 244 249 251 248 242 240 243 241 236 233 232 234 234 237 241 238 240 244 232 224 231 240 240 234 230 237 242 241 244 259 272 267 255 249 249 250 251 250 245 244 248 250 251 251 252 253 257 258 256 252 250 252 256 257 258 259 259 260 261 262 264 266 267 267
243 237 238 248 255 251 244 241 239 236 241 247 248 244 242 242 244 245 244 242 239 235 230 232 238 239 245 255 246 229 220 226 237 235 226 231 237 235 238 249 256 261 256 246 246 251 252 247 241 240 242 243 244 248 249 248 247 248 249 251 251 253 257 260 263 264 265 265 265 264 264 265 267 269
229 224 232 243 248 243 231 226 228 229 236 244 243 242 242 244 246 247 247 246 244 240 237 240 243 241 246 252 246 233 219 212 231 244 239 240 240 237 243 248 248 253 254 243 243 251 253 249 242 237 239 241 243 247 246 242 242 244 246 249 253 257 261 265 269 273 275 275 272 268 266 264 265 267
222 224 234 240 238 232 221 217 219 223 229 237 239 238 241 246 248 247 245 245 243 240 241 246 246 244 251 252 244 241 232 219 229 238 243 248 245 242 249 253 251 251 247 239 239 250 256 251 238 227 231 239 242 244 243 243 244 245 246 248 253 258 264 268 272 275 277 278 276 272 268 267 266 268
227 230 234 233 225 217 220 222 218 215 220 229 233 234 240 246 248 250 249 245 243 241 241 244 246 250 256 255 247 243 238 234 234 231 235 246 251 253 258 261 261 259 250 234 227 240 259 247 227 219 221 227 232 236 240 244 244 243 245 250 254 257 260 264 268 271 271 272 272 269 266 267 268 269
231 231 228 225 216 211 218 219 210 205 208 216 226 235 242 244 249 257 256 251 251 250 246 243 243 241 240 239 243 252 252 250 244 236 241 251 254 255 258 262 265 266 262 243 228 233 252 242 217 209 204 202 219 240 253 257 252 248 249 252 254 256 257 261 264 266 267 269 270 270 270 270 271 272
226 227 223 218 214 211 211 209 206 209 212 213 220 233 239 243 252 260 260 261 257 246 239 238 232 218 216 243 271 281 275 264 251 241 241 248 252 247 244 258 264 261 261 249 229 226 243 247 216 193 192 200 219 243 259 267 267 269 269 262 256 255 257 260 263 265 267 269 269 269 270 271 271 271
221 222 218 214 213 210 208 208 208 210 213 214 219 230 239 248 261 262 253 247 239 224 219 217 215 220 241 265 280 290 285 266 250 242 239 245 259 259 249 256 266 267 266 251 228 219 229 237 207 178 183 207 226 233 243 251 264 284 291 275 251 249 256 262 265 266 267 268 269 269 269 269 268 265
220 216 214 213 211 207 205 205 200 195 196 203 212 229 250 263 273 263 228 220 210 200 204 207 214 227 249 271 279 288 290 271 254 251 247 247 264 275 272 269 272 277 268 226 212 213 215 216 206 183 184 207 215 213 224 236 252 276 291 286 261 259 283 290 279 269 267 267 267 269 268 265 262 253
207 203 208 211 206 200 197 192 190 195 200 202 207 220 249 264 259 218 190 202 201 194 198 206 218 227 251 282 281 277 276 268 260 257 250 245 256 270 279 281 277 278 217 170 192 215 223 221 225 218 219 238 201 191 209 230 250 267 283 292 290 298 315 317 308 292 284 278 268 267 268 263 251 238
204 196 199 203 200 195 195 195 198 206 217 225 227 231 243 249 235 191 167 178 187 193 206 226 235 236 254 282 275 265 263 258 245 230 221 233 250 257 270 291 296 310 18 161 198 220 226 225 237 231 229 247 255 201 201 218 236 251 264 277 277 281 300 311 311 310 309 303 285 267 268 258 231 217
206 195 197 205 205 202 205 212 219 227 234 237 233 230 231 231 224 208 193 185 192 215 230 242 247 248 261 270 265 255 230 200 186 186 195 223 251 250 241 256 280 315 353 318 228 217 212 227 277 278 250 254 268 255 223 212 215 228 244 245 232 243 262 289 299 302 308 312 310 294 257 235 222 216
195 195 200 202 200 204 214 227 244 256 252 234 219 214 216 219 222 224 222 218 230 244 246 247 252 256 259 267 276 243 161 170 188 213 225 234 248 263 271 269 261 260 288 311 276 225 258 328 329 315 306 301 292 278 265 225 192 204 223 224 209 223 243 260 266 273 291 306 315 314 268 228 220 218
180 184 185 180 181 194 218 240 251 251 236 218 206 203 213 225 229 230 227 220 221 236 246 243 240 243 248 267 291 137 156 182 227 243 238 224 212 244 299 306 287 256 229 228 278 296 294 308 319 318 313 311 307 298 297 293 187 200 216 217 209 221 237 240 230 250 278 302 313 314 285 235 225 222
168 166 163 162 167 178 190 200 203 197 195 199 202 208 224 229 216 210 214 208 199 204 217 224 225 219 194 159 157 162 173 192 218 220 199 183 203 235 235 221 236 272 236 211 264 306 311 306 309 309 304 292 288 295 303 307 291 238 216 208 208 215 222 223 220 241 268 291 300 302 292 251 239 231
166 159 156 154 154 158 168 176 179 181 189 202 213 217 214 202 192 195 206 201 190 195 209 222 218 191 167 169 184 190 196 200 200 194 186 203 236 253 242 234 249 266 253 236 257 284 280 278 287 292 298 296 283 280 286 290 293 283 237 214 209 205 207 216 228 241 253 270 282 283 274 257 256 246
183 180 174 169 172 175 182 194 200 199 206 215 209 200 195 191 190 196 201 197 198 206 219 229 208 179 175 193 202 203 205 199 199 205 211 228 246 245 245 263 272 270 256 248 264 273 267 268 273 274 285 300 295 288 288 285 287 287 260 227 220 214 209 212 223 241 254 266 275 272 258 248 252 248
187 197 190 187 198 202 206 216 219 213 212 214 206 199 200 198 193 190 194 201 207 213 224 226 186 168 178 204 204 196 200 204 210 215 216 232 257 265 259 266 275 280 274 256 247 259 268 272 275 275 277 279 281 287 294 290 282 282 271 237 221 231 236 224 228 241 256 264 267 267 258 246 244 244
175 184 183 185 200 208 207 209 212 210 207 207 207 206 206 203 195 191 197 204 201 205 217 211 186 179 194 208 204 201 206 208 213 217 221 233 248 262 270 273 275 279 284 262 238 244 257 266 276 294 300 290 275 269 272 275 274 273 271 250 222 223 232 236 235 240 248 256 261 265 263 252 243 246
172 171 177 188 198 203 202 200 204 205 202 203 209 209 210 211 200 191 198 204 196 194 206 206 200 208 215 209 208 212 213 213 216 220 230 240 242 244 254 265 270 270 271 265 239 236 242 256 269 291 307 304 290 273 260 254 254 257 260 252 232 225 230 234 236 240 245 250 254 258 263 259 249 248
186 185 191 199 199 199 202 204 203 202 200 204 208 205 207 215 207 193 197 201 189 180 186 200 208 218 218 213 214 217 215 213 214 218 226 233 232 235 245 260 271 263 246 246 256 242 230 239 260 281 294 293 284 278 267 252 239 236 240 241 233 230 234 234 231 233 239 243 245 251 262 266 260 253
216 212 207 207 203 201 206 209 208 205 202 205 210 203 194 198 204 204 203 196 183 175 182 194 204 214 219 217 217 217 213 211 213 215 216 219 225 230 232 244 257 246 222 239 265 244 215 212 230 273 295 290 273 276 279 258 233 221 224 239 241 232 229 231 226 224 230 237 240 244 257 270 273 267
250 249 233 221 211 207 208 210 215 215 204 198 208 212 199 191 197 204 203 194 187 187 193 195 196 202 210 211 211 213 212 211 217 221 219 220 224 225 224 231 239 228 211 221 249 222 188 192 230 253 281 290 276 289 305 250 220 214 216 234 247 233 220 219 219 219 227 236 241 245 251 261 271 275
264 276 269 250 231 221 213 208 211 216 213 205 206 213 213 204 196 195 195 191 188 194 206 205 200 202 205 202 202 207 209 211 220 231 232 226 219 216 220 234 239 224 205 202 209 199 190 206 224 230 246 265 270 300 354 20 227 231 227 230 237 226 212 213 215 219 227 235 239 244 249 250 256 266
253 271 282 276 253 234 225 220 212 206 211 219 218 212 215 212 192 182 184 186 187 197 215 218 213 216 213 200 193 196 204 212 219 226 234 231 214 204 215 234 239 229 208 195 197 201 208 219 221 214 214 222 232 254 293 299 285 276 250 230 226 217 213 218 220 222 228 233 234 238 244 247 252 259
237 252 270 279 271 245 230 235 235 216 208 217 226 220 215 207 185 178 183 189 192 201 214 219 219 220 216 204 196 199 208 218 221 223 231 231 211 201 210 222 225 231 233 216 207 205 208 217 221 211 205 210 222 238 268 285 288 289 272 246 234 222 216 222 224 220 224 231 232 229 229 232 239 248
220 234 254 270 276 265 237 226 240 246 228 219 223 226 228 226 202 187 190 193 193 198 211 222 225 220 211 207 211 218 223 223 222 223 229 229 214 203 205 210 212 220 241 253 250 236 223 225 228 220 206 205 214 226 247 271 279 283 277 259 245 234 226 228 229 224 222 228 227 222 223 229 235 240
215 218 231 248 259 266 258 229 226 243 250 242 229 227 237 249 255 247 217 196 192 195 204 217 227 229 222 213 213 224 234 234 226 222 226 232 227 209 200 204 217 223 227 240 252 252 239 225 216 205 200 203 210 218 228 238 256 274 281 266 246 238 232 230 231 228 224 224 222 221 224 230 235 237
231 216 216 229 240 244 251 252 241 242 253 256 244 229 229 237 243 249 251 236 213 208 212 220 226 230 230 223 215 218 229 236 235 230 226 230 236 224 205 205 218 227 233 247 253 235 201 192 192 192 195 203 209 218 234 246 259 275 283 275 251 238 233 230 229 229 229 230 231 230 227 226 228 234
261 233 218 221 225 220 219 236 256 269 282 283 272 251 238 236 238 241 240 236 232 229 229 231 234 236 241 239 226 218 222 229 237 242 238 235 243 246 230 219 223 229 239 262 268 211 179 181 189 192 196 204 209 216 230 246 260 271 279 285 276 248 235 232 230 230 231 233 236 238 237 236 238 243
269 264 247 233 221 211 211 219 223 230 246 258 265 270 262 250 248 250 247 239 233 231 230 233 236 237 242 247 240 228 227 228 231 236 241 245 252 260 260 254 248 239 236 248 259 248 217 200 196 197 203 214 218 219 227 240 251 263 277 290 293 275 249 239 235 236 238 241 245 249 247 244 245 246